Hutchinson, MN

9:18 PM CDT on June 26, 2017 (GMT -0500)
Hutchinson Municipal-Butler

Weather History for KHCD - December, 2013

Change the Weather History Date:

Sunday, December 1, 2013

  Actual Average Record
Temperature  
Mean Temperature 22 °F -  
Max Temperature 32 °F 31 °F 66 °F (1998)
Min Temperature 13 °F 14 °F -11 °F (1991)
Degree Days  
Heating Degree Days 42    
Moisture  
Dew Point 21 °F    
Average Humidity 86    
Maximum Humidity 96    
Minimum Humidity 74    
Precipitation  
Precipitation 0.00 in - - ()
Sea Level Pressure  
Sea Level Pressure 30.08 in    
Wind  
Wind Speed 3 mph (ENE)    
Max Wind Speed 7 mph    
Max Gust Speed -    
Visibility 8 miles    
Events      
Averages and records for this station are not official NWS values.
T = Trace of Precipitation, MM = Missing Value Source: NWS Daily Summary

Daily Weather History Graph

Daily Weather History Graph

Search for Another Location

Airport or City:

Trip Planner

Search our weather history database for the weather conditions in past years. The results will help you decide how hot, cold, wet, or windy it might be!

Date:

Astronomy

Dec. 01, 2013 Rise Set
Actual Time 7:35 AM CST 4:37 PM CST
Civil Twilight 7:02 AM CST 5:10 PM CST
Nautical Twilight 6:25 AM CST 5:47 PM CST
Astronomical Twilight 5:50 AM CST 6:22 PM CST
Moon 5:51 AM CST (12/1) 3:51 PM CST (12/1)
Length of Visible Light 10h 08m
Length of Day
9h 02m
Waning Crescent, 2% of the Moon is Illuminated
Dec 1
Waning Crescent
Dec 2
New
Dec 9
First Quarter
Dec 17
Full
Dec 25
Last Quarter

Hourly Weather History & Observations

Time (CST) Temp. Windchill Dew Point Humidity Pressure Visibility Wind Dir Wind Speed Gust Speed Precip Events Conditions
12:13 AM 25.7 °F 19.0 °F 21.6 °F 84% 30.18 in 10.0 mi NW 5.8 mph - N/A   Scattered Clouds
12:33 AM 25.7 °F 20.1 °F 21.6 °F 84% 30.17 in 10.0 mi NNW 4.6 mph - N/A   Scattered Clouds
12:53 AM 25.0 °F 18.1 °F 21.0 °F 85% 30.17 in 10.0 mi NNW 5.8 mph - N/A   Mostly Cloudy
1:13 AM 23.0 °F 18.4 °F 19.8 °F 87% 30.17 in 10.0 mi NNW 3.5 mph - N/A   Scattered Clouds
1:33 AM 22.5 °F 16.3 °F 19.4 °F 88% 30.17 in 10.0 mi NNW 4.6 mph - N/A   Mostly Cloudy
1:53 AM 23.2 °F 18.7 °F 20.5 °F 89% 30.17 in 10.0 mi North 3.5 mph - N/A   Overcast
2:13 AM 22.8 °F 15.5 °F 19.9 °F 89% 30.16 in 10.0 mi North 5.8 mph - N/A   Scattered Clouds
2:33 AM 23.9 °F 16.8 °F 20.8 °F 88% 30.17 in 10.0 mi NNW 5.8 mph - N/A   Mostly Cloudy
2:54 AM 24.1 °F 17.0 °F 20.8 °F 87% 30.18 in 10.0 mi NW 5.8 mph - N/A   Overcast
3:13 AM 23.0 °F - 20.1 °F 89% 30.18 in 10.0 mi Calm Calm - N/A   Scattered Clouds
3:33 AM 21.4 °F 16.6 °F 18.9 °F 90% 30.18 in 10.0 mi NNW 3.5 mph - N/A   Clear
3:53 AM 18.7 °F 11.9 °F 16.9 °F 93% 30.18 in 7.0 mi NNW 4.6 mph - N/A   Clear
4:14 AM 18.5 °F - 16.5 °F 92% 30.17 in 7.0 mi Calm Calm - N/A   Clear
4:33 AM 18.7 °F 9.5 °F 16.9 °F 93% 30.17 in 7.0 mi NNW 6.9 mph - N/A   Clear
4:53 AM 19.4 °F - 17.8 °F 93% 30.17 in 7.0 mi Calm Calm - N/A   Clear
5:14 AM 17.6 °F 9.3 °F 16.0 °F 93% 30.18 in 7.0 mi NNW 5.8 mph - N/A   Clear
5:33 AM 18.9 °F 13.7 °F 17.2 °F 93% 30.18 in 7.0 mi NNW 3.5 mph - N/A   Clear
5:53 AM 18.3 °F - 17.1 °F 95% 30.18 in 7.0 mi Calm Calm - N/A   Clear
6:14 AM 16.9 °F - 15.3 °F 93% 30.18 in 7.0 mi Calm Calm - N/A   Clear
6:33 AM 15.8 °F - 14.5 °F 95% 30.18 in 7.0 mi Calm Calm - N/A   Clear
6:53 AM 16.5 °F - 15.6 °F 96% 30.18 in 5.0 mi Calm Calm - N/A   Clear
7:14 AM 13.5 °F 4.4 °F 11.8 °F 93% 30.18 in 7.0 mi West 5.8 mph - N/A   Clear
7:33 AM 14.0 °F - 12.9 °F 95% 30.18 in 5.0 mi Calm Calm - N/A   Clear
7:53 AM 15.4 °F - 14.0 °F 94% 30.18 in 5.0 mi Calm Calm - N/A   Clear
8:14 AM 16.9 °F - 15.4 °F 94% 30.17 in 5.0 mi Calm Calm - N/A   Mostly Cloudy
8:33 AM 21.0 °F - 19.4 °F 93% 30.17 in 5.0 mi Calm Calm - N/A   Overcast
8:53 AM 22.1 °F - 20.3 °F 93% 30.17 in 5.0 mi Calm Calm - N/A   Overcast
9:13 AM 23.5 °F 19.1 °F 21.6 °F 92% 30.17 in 7.0 mi NNE 3.5 mph - N/A   Overcast
9:33 AM 23.9 °F - 21.6 °F 91% 30.18 in 7.0 mi Calm Calm - N/A   Overcast
9:53 AM 25.0 °F - 22.3 °F 89% 30.17 in 7.0 mi Calm Calm - N/A   Overcast
10:13 AM 25.5 °F 21.3 °F 22.8 °F 89% 30.17 in 7.0 mi ENE 3.5 mph - N/A   Overcast
10:33 AM 26.1 °F - 23.0 °F 88% 30.17 in 7.0 mi Calm Calm - N/A   Overcast
10:54 AM 27.0 °F - 23.5 °F 87% 30.16 in 7.0 mi Calm Calm - N/A   Overcast
11:13 AM 27.7 °F - 23.7 °F 85% 30.15 in 7.0 mi Calm Calm - N/A   Overcast
11:33 AM 28.2 °F - 23.7 °F 83% 30.14 in 7.0 mi Calm Calm - N/A   Overcast
11:53 AM 28.8 °F - 23.9 °F 82% 30.13 in 7.0 mi Calm Calm - N/A   Overcast
12:13 PM 29.3 °F - 23.9 °F 80% 30.12 in 10.0 mi Calm Calm - N/A   Overcast
12:33 PM 30.0 °F - 24.4 °F 80% 30.11 in 10.0 mi Calm Calm - N/A   Overcast
12:53 PM 30.0 °F - 24.1 °F 79% 30.10 in 7.0 mi Calm Calm - N/A   Overcast
1:13 PM 30.6 °F - 24.4 °F 78% 30.08 in 10.0 mi Calm Calm - N/A   Overcast
1:33 PM 30.7 °F - 24.3 °F 77% 30.07 in 10.0 mi Calm Calm - N/A   Overcast
1:53 PM 31.3 °F - 24.4 °F 76% 30.07 in 10.0 mi Calm Calm - N/A   Overcast
2:13 PM 32.0 °F - 24.6 °F 74% 30.05 in 10.0 mi Calm Calm - N/A   Overcast
2:33 PM 32.0 °F 28.7 °F 24.6 °F 74% 30.05 in 10.0 mi SE 3.5 mph - N/A   Overcast
2:53 PM 32.0 °F - 24.4 °F 74% 30.04 in 10.0 mi Calm Calm - N/A   Overcast
3:14 PM 32.0 °F 27.5 °F 24.4 °F 74% 30.04 in 10.0 mi ESE 4.6 mph - N/A   Overcast
3:33 PM 32.0 °F 27.5 °F 24.6 °F 74% 30.04 in 10.0 mi SE 4.6 mph - N/A   Overcast
3:53 PM 32.0 °F 28.7 °F 24.4 °F 74% 30.04 in 10.0 mi SE 3.5 mph - N/A   Overcast
4:13 PM 31.6 °F 28.3 °F 24.4 °F 75% 30.03 in 10.0 mi ESE 3.5 mph - N/A   Overcast
4:34 PM 31.5 °F 25.8 °F 24.4 °F 75% 30.02 in 10.0 mi ESE 5.8 mph - N/A   Overcast
4:53 PM 31.1 °F 26.4 °F 24.4 °F 76% 30.02 in 10.0 mi ESE 4.6 mph - N/A   Overcast
5:13 PM 30.4 °F 25.6 °F 23.9 °F 77% 30.01 in 10.0 mi ESE 4.6 mph - N/A   Overcast
5:33 PM 30.2 °F 26.7 °F 23.9 °F 77% 30.01 in 7.0 mi ESE 3.5 mph - N/A   Overcast
5:53 PM 29.7 °F - 23.9 °F 79% 30.02 in 7.0 mi Calm Calm - N/A   Overcast
6:14 PM 29.1 °F - 23.7 °F 80% 30.01 in 7.0 mi Calm Calm - N/A   Overcast
6:33 PM 27.7 °F 22.4 °F 22.8 °F 82% 29.99 in 7.0 mi ESE 4.6 mph - N/A   Mostly Cloudy
6:53 PM 25.9 °F 21.7 °F 22.3 °F 86% 29.99 in 7.0 mi ESE 3.5 mph - N/A   Scattered Clouds
7:13 PM 25.3 °F 21.1 °F 21.7 °F 86% 29.97 in 7.0 mi ESE 3.5 mph - N/A   Clear
7:33 PM 24.8 °F 19.1 °F 21.7 °F 88% 29.97 in 7.0 mi East 4.6 mph - N/A   Clear
7:53 PM 24.3 °F 17.3 °F 21.2 °F 88% 29.96 in 7.0 mi East 5.8 mph - N/A   Clear
8:13 PM 24.6 °F - 21.7 °F 89% 29.96 in 7.0 mi Calm Calm - N/A   Clear
8:32 PM 25.3 °F - 22.1 °F 87% 29.96 in 7.0 mi Calm Calm - N/A   Scattered Clouds
8:53 PM 26.2 °F 19.6 °F 23.4 °F 89% 29.94 in 7.0 mi East 5.8 mph - N/A   Clear
9:14 PM 27.0 °F 20.5 °F 23.2 °F 86% 29.92 in 7.0 mi East 5.8 mph - N/A   Clear
9:33 PM 26.4 °F 20.9 °F 22.8 °F 86% 29.93 in 7.0 mi East 4.6 mph - N/A   Clear
9:54 PM 26.2 °F - 23.0 °F 88% 29.93 in 7.0 mi Calm Calm - N/A   Clear
10:13 PM 27.1 °F 21.8 °F 23.9 °F 88% 29.92 in 7.0 mi ESE 4.6 mph - N/A   Mostly Cloudy
10:33 PM 26.8 °F 21.4 °F 23.5 °F 88% 29.91 in 7.0 mi ESE 4.6 mph - N/A   Mostly Cloudy
10:54 PM 26.6 °F 21.2 °F 23.4 °F 88% 29.91 in 7.0 mi ESE 4.6 mph - N/A   Scattered Clouds
11:14 PM 26.4 °F - 23.4 °F 88% 29.90 in 7.0 mi Calm Calm - N/A   Mostly Cloudy
11:33 PM 27.7 °F 21.3 °F 24.3 °F 87% 29.90 in 7.0 mi ESE 5.8 mph - N/A   Overcast
11:53 PM 28.2 °F 23.1 °F 24.4 °F 86% 29.89 in 7.0 mi ESE 4.6 mph - N/A   Overcast